Location: Unspecified
(41.1637°N, 24.2901°E)
Time: 09:10:41
(UTC+01:00)

ISS - Pass Details

Date: 27 October 2020
Orbit: 417 x 420 km, 51.6° (Epoch: 29 October)

Event Time Altitude Azimuth Distance (km) Brightness Sun altitude
Exits shadow 04:21:42 36° 319° (NW) 679 -3.1 -16.9°
Maximum altitude 04:22:00 37° 332° (NNW) 668 -3.0 -16.8°
Drops below altitude 10° 04:25:09 10° 42° (NE) 1,497 -0.4 -16.2°
Sets 04:27:21 0° 51° (NE) 2,363 0.8 -15.8°
